Time,TemperatureF,DewpointF,PressureIn,WindDirection,WindDirectionDegrees,WindSpeedMPH,WindSpeedGustMPH,Humidity,HourlyPrecipIn,Conditions,Clouds,dailyrainin,SoftwareType,DateUTC
2013-05-24 00:01:00,68.5,67.9,29.81,WSW,257,0.0,1.0,98,0.00,,---,0.10,VWS V14.01,2013-05-24 04:01:00,
2013-05-24 00:03:00,68.5,67.9,29.82,WSW,255,1.0,1.0,98,0.00,,---,0.00,VWS V14.01,2013-05-24 04:03:00,
2013-05-24 00:08:00,68.5,67.9,29.82,West,263,1.0,1.0,98,0.00,,---,0.00,VWS V14.01,2013-05-24 04:08:00,
2013-05-24 00:13:00,68.5,67.9,29.82,West,262,1.0,1.0,98,0.00,,---,0.00,VWS V14.01,2013-05-24 04:13:00,
2013-05-24 00:18:00,68.4,67.8,29.83,WNW,288,0.0,2.0,98,0.00,,---,0.00,VWS V14.01,2013-05-24 04:18:00,
2013-05-24 00:23:00,68.5,67.9,29.83,SW,218,2.0,2.0,98,0.00,,---,0.00,VWS V14.01,2013-05-24 04:23:00,
2013-05-24 00:28:00,68.2,67.6,29.83,ESE,114,1.0,2.0,98,0.00,,---,0.00,VWS V14.01,2013-05-24 04:28:00,
2013-05-24 00:33:00,67.7,66.8,29.83,SSE,157,0.0,3.0,97,0.04,,---,0.04,VWS V14.01,2013-05-24 04:33:00,
2013-05-24 00:38:00,67.3,66.4,29.82,SSE,157,0.0,3.0,97,0.06,,---,0.06,VWS V14.01,2013-05-24 04:38:00,
2013-05-24 00:44:00,67.1,66.2,29.82,SSE,164,0.0,3.0,97,0.06,,---,0.06,VWS V14.01,2013-05-24 04:44:00,
2013-05-24 00:49:00,66.6,65.7,29.82,WSW,245,0.0,3.0,97,0.06,,---,0.06,VWS V14.01,2013-05-24 04:49:00,
2013-05-24 00:54:00,66.3,65.4,29.82,WSW,246,0.0,3.0,97,0.06,,---,0.06,VWS V14.01,2013-05-24 04:54:00,
2013-05-24 00:59:00,66.0,65.1,29.81,WSW,245,0.0,3.0,97,0.06,,---,0.06,VWS V14.01,2013-05-24 04:59:00,
2013-05-24 01:04:00,65.8,64.9,29.82,WSW,245,0.0,1.0,97,0.06,,---,0.06,VWS V14.01,2013-05-24 05:04:00,
2013-05-24 01:09:00,65.4,64.5,29.81,WSW,246,0.0,1.0,97,0.06,,---,0.06,VWS V14.01,2013-05-24 05:09:00,
2013-05-24 01:14:00,65.2,64.3,29.81,WSW,246,0.0,1.0,97,0.06,,---,0.06,VWS V14.01,2013-05-24 05:14:00,
2013-05-24 01:19:00,65.0,64.1,29.81,WSW,246,0.0,1.0,97,0.06,,---,0.06,VWS V14.01,2013-05-24 05:19:00,
2013-05-24 01:24:00,64.9,64.0,29.81,WSW,248,1.0,1.0,97,0.06,,---,0.06,VWS V14.01,2013-05-24 05:24:00,
2013-05-24 01:29:00,64.8,63.9,29.80,WSW,245,0.0,1.0,97,0.06,,---,0.06,VWS V14.01,2013-05-24 05:29:00,
2013-05-24 01:34:00,64.6,63.7,29.80,WSW,248,0.0,0.0,97,0.03,,---,0.06,VWS V14.01,2013-05-24 05:34:00,
2013-05-24 01:39:00,64.3,63.4,29.80,WSW,248,0.0,0.0,97,0.03,,---,0.06,VWS V14.01,2013-05-24 05:39:00,
2013-05-24 01:44:00,64.1,63.2,29.80,WSW,248,0.0,0.0,97,0.03,,---,0.06,VWS V14.01,2013-05-24 05:44:00,
2013-05-24 01:50:00,64.1,63.5,29.80,WSW,248,0.0,0.0,98,0.03,,---,0.06,VWS V14.01,2013-05-24 05:50:00,
2013-05-24 01:55:00,64.1,63.5,29.80,WSW,248,0.0,1.0,98,0.03,,---,0.06,VWS V14.01,2013-05-24 05:55:00,
2013-05-24 02:00:00,64.1,63.5,29.80,WSW,245,0.0,1.0,98,0.03,,---,0.06,VWS V14.01,2013-05-24 06:00:00,
2013-05-24 02:05:00,64.0,63.4,29.79,WSW,245,0.0,0.0,98,0.00,,---,0.06,VWS V14.01,2013-05-24 06:05:00,
2013-05-24 02:10:00,63.9,63.3,29.79,WSW,245,0.0,0.0,98,0.00,,---,0.06,VWS V14.01,2013-05-24 06:10:00,
2013-05-24 02:15:00,63.7,63.1,29.79,WSW,245,0.0,0.0,98,0.00,,---,0.06,VWS V14.01,2013-05-24 06:15:00,
2013-05-24 02:20:00,63.6,63.0,29.79,WSW,245,0.0,0.0,98,0.00,,---,0.06,VWS V14.01,2013-05-24 06:20:00,
2013-05-24 02:25:00,63.4,62.8,29.78,WSW,244,0.0,0.0,98,0.00,,---,0.06,VWS V14.01,2013-05-24 06:25:00,
2013-05-24 02:30:00,63.3,62.7,29.78,WSW,244,0.0,0.0,98,0.00,,---,0.06,VWS V14.01,2013-05-24 06:30:00,
2013-05-24 02:35:00,63.4,62.8,29.78,WSW,245,0.0,0.0,98,0.00,,---,0.06,VWS V14.01,2013-05-24 06:35:00,
2013-05-24 02:41:00,63.5,62.9,29.78,WSW,245,0.0,1.0,98,0.00,,---,0.06,VWS V14.01,2013-05-24 06:41:00,
2013-05-24 02:46:00,63.5,62.9,29.79,WSW,246,0.0,1.0,98,0.00,,---,0.06,VWS V14.01,2013-05-24 06:46:00,
2013-05-24 02:51:00,63.5,62.9,29.79,West,264,0.0,1.0,98,0.00,,---,0.06,VWS V14.01,2013-05-24 06:51:00,
2013-05-24 02:56:00,63.6,63.0,29.79,West,264,0.0,1.0,98,0.00,,---,0.06,VWS V14.01,2013-05-24 06:56:00,
2013-05-24 03:01:00,63.7,63.1,29.80,West,264,0.0,0.0,98,0.00,,---,0.06,VWS V14.01,2013-05-24 07:01:00,
2013-05-24 03:06:00,63.8,63.2,29.79,West,264,0.0,1.0,98,0.00,,---,0.06,VWS V14.01,2013-05-24 07:06:00,
2013-05-24 03:11:00,63.9,63.3,29.79,West,264,0.0,1.0,98,0.00,,---,0.06,VWS V14.01,2013-05-24 07:11:00,
2013-05-24 03:16:00,63.8,63.2,29.78,West,264,0.0,1.0,98,0.00,,---,0.06,VWS V14.01,2013-05-24 07:16:00,
2013-05-24 03:21:00,63.9,63.3,29.78,West,264,0.0,1.0,98,0.00,,---,0.06,VWS V14.01,2013-05-24 07:21:00,
2013-05-24 03:27:00,63.9,63.3,29.79,West,267,1.0,1.0,98,0.00,,---,0.06,VWS V14.01,2013-05-24 07:27:00,
2013-05-24 03:32:00,64.0,63.4,29.79,West,271,0.0,1.0,98,0.00,,---,0.06,VWS V14.01,2013-05-24 07:32:00,
2013-05-24 03:37:00,63.9,63.3,29.79,West,271,0.0,1.0,98,0.00,,---,0.06,VWS V14.01,2013-05-24 07:37:00,
2013-05-24 03:42:00,63.9,63.3,29.79,West,271,0.0,1.0,98,0.00,,---,0.06,VWS V14.01,2013-05-24 07:42:00,
2013-05-24 03:47:00,63.9,63.3,29.79,West,271,0.0,1.0,98,0.00,,---,0.06,VWS V14.01,2013-05-24 07:47:00,
2013-05-24 03:52:00,63.9,63.3,29.78,West,271,0.0,1.0,98,0.00,,---,0.06,VWS V14.01,2013-05-24 07:52:00,
2013-05-24 03:57:00,63.8,63.2,29.78,West,271,0.0,1.0,98,0.00,,---,0.06,VWS V14.01,2013-05-24 07:57:00,
2013-05-24 04:02:00,63.7,63.1,29.78,West,271,0.0,0.0,98,0.00,,---,0.06,VWS V14.01,2013-05-24 08:02:00,
2013-05-24 04:07:00,63.7,63.1,29.78,West,271,0.0,1.0,98,0.00,,---,0.06,VWS V14.01,2013-05-24 08:07:00,
2013-05-24 04:12:00,63.9,63.6,29.78,West,271,0.0,1.0,99,0.00,,---,0.06,VWS V14.01,2013-05-24 08:12:00,
2013-05-24 04:17:00,63.8,63.5,29.78,West,274,0.0,1.0,99,0.00,,---,0.06,VWS V14.01,2013-05-24 08:17:00,
2013-05-24 04:23:00,63.9,63.6,29.79,West,274,0.0,1.0,99,0.00,,---,0.06,VWS V14.01,2013-05-24 08:23:00,
2013-05-24 04:28:00,63.9,63.6,29.79,West,274,0.0,1.0,99,0.00,,---,0.06,VWS V14.01,2013-05-24 08:28:00,
2013-05-24 04:33:00,63.9,63.6,29.79,West,269,0.0,1.0,99,0.00,,---,0.06,VWS V14.01,2013-05-24 08:33:00,
2013-05-24 04:38:00,63.9,63.6,29.79,SW,233,1.0,1.0,99,0.00,,---,0.06,VWS V14.01,2013-05-24 08:38:00,
2013-05-24 04:43:00,63.8,63.5,29.79,WSW,238,0.0,1.0,99,0.00,,---,0.06,VWS V14.01,2013-05-24 08:43:00,
2013-05-24 04:48:00,63.8,63.2,29.79,SSW,201,0.0,2.0,98,0.00,,---,0.06,VWS V14.01,2013-05-24 08:48:00,
2013-05-24 04:53:00,63.8,63.5,29.79,SW,229,0.0,2.0,99,0.00,,---,0.06,VWS V14.01,2013-05-24 08:53:00,
2013-05-24 04:58:00,63.7,63.1,29.79,SW,229,0.0,2.0,98,0.00,,---,0.06,VWS V14.01,2013-05-24 08:58:00,
2013-05-24 05:03:00,63.7,63.1,29.79,SW,229,0.0,1.0,98,0.00,,---,0.06,VWS V14.01,2013-05-24 09:03:00,
2013-05-24 05:09:00,63.5,62.9,29.79,SE,126,0.0,1.0,98,0.00,,---,0.06,VWS V14.01,2013-05-24 09:09:00,
2013-05-24 05:14:00,63.5,62.9,29.79,SE,129,0.0,1.0,98,0.00,,---,0.06,VWS V14.01,2013-05-24 09:14:00,
2013-05-24 05:19:00,63.4,62.8,29.79,SE,129,0.0,1.0,98,0.00,,---,0.06,VWS V14.01,2013-05-24 09:19:00,
2013-05-24 05:24:00,63.4,62.8,29.79,SSE,148,0.0,1.0,98,0.00,,---,0.06,VWS V14.01,2013-05-24 09:24:00,
2013-05-24 05:29:00,63.3,62.7,29.79,SSE,148,0.0,1.0,98,0.00,,---,0.06,VWS V14.01,2013-05-24 09:29:00,
2013-05-24 05:34:00,63.2,62.6,29.79,SSE,148,0.0,0.0,98,0.00,,---,0.06,VWS V14.01,2013-05-24 09:34:00,
2013-05-24 05:39:00,63.1,62.5,29.79,SSE,148,0.0,0.0,98,0.00,,---,0.06,VWS V14.01,2013-05-24 09:39:00,
2013-05-24 05:44:00,63.0,62.4,29.79,SSE,148,0.0,0.0,98,0.00,,---,0.06,VWS V14.01,2013-05-24 09:44:00,
2013-05-24 05:49:00,62.9,62.3,29.80,SW,236,0.0,1.0,98,0.00,,---,0.06,VWS V14.01,2013-05-24 09:49:00,
2013-05-24 05:55:00,62.9,62.3,29.80,SW,236,0.0,1.0,98,0.00,,---,0.06,VWS V14.01,2013-05-24 09:55:00,
2013-05-24 06:00:00,62.8,62.2,29.80,SW,236,0.0,1.0,98,0.00,,---,0.06,VWS V14.01,2013-05-24 10:00:00,
2013-05-24 06:05:00,62.7,62.1,29.80,SW,235,0.0,0.0,98,0.00,,---,0.06,VWS V14.01,2013-05-24 10:05:00,
2013-05-24 06:10:00,62.7,62.1,29.81,SW,233,0.0,1.0,98,0.00,,---,0.06,VWS V14.01,2013-05-24 10:10:00,
2013-05-24 06:15:00,62.6,62.0,29.81,SW,232,0.0,1.0,98,0.00,,---,0.06,VWS V14.01,2013-05-24 10:15:00,
2013-05-24 06:20:00,62.6,62.0,29.81,SW,233,0.0,1.0,98,0.00,,---,0.06,VWS V14.01,2013-05-24 10:20:00,
2013-05-24 06:25:00,62.6,62.0,29.82,SW,235,0.0,1.0,98,0.00,,---,0.06,VWS V14.01,2013-05-24 10:25:00,
2013-05-24 06:30:00,62.7,62.1,29.82,SW,235,0.0,1.0,98,0.00,,---,0.06,VWS V14.01,2013-05-24 10:30:00,
2013-05-24 06:35:00,62.7,62.1,29.82,SSW,203,0.0,1.0,98,0.00,,---,0.06,VWS V14.01,2013-05-24 10:35:00,
2013-05-24 06:40:00,62.7,62.1,29.82,SSW,203,0.0,1.0,98,0.00,,---,0.06,VWS V14.01,2013-05-24 10:40:00,
2013-05-24 06:45:00,62.7,62.1,29.83,SSW,203,0.0,1.0,98,0.00,,---,0.06,VWS V14.01,2013-05-24 10:45:00,
2013-05-24 06:50:00,62.7,62.1,29.83,SE,134,0.0,1.0,98,0.00,,---,0.06,VWS V14.01,2013-05-24 10:50:00,
2013-05-24 06:55:00,62.7,62.1,29.83,SE,133,0.0,1.0,98,0.00,,---,0.06,VWS V14.01,2013-05-24 10:55:00,
2013-05-24 07:01:00,62.8,62.2,29.83,North,359,0.0,2.0,98,0.00,,---,0.06,VWS V14.01,2013-05-24 11:01:00,
2013-05-24 07:06:00,62.7,62.1,29.82,SE,131,1.0,1.0,98,0.00,,---,0.06,VWS V14.01,2013-05-24 11:06:00,
2013-05-24 07:11:00,62.6,62.0,29.82,SSW,199,0.0,1.0,98,0.00,,---,0.06,VWS V14.01,2013-05-24 11:11:00,
2013-05-24 07:16:00,62.6,62.0,29.83,SSW,200,0.0,1.0,98,0.00,,---,0.06,VWS V14.01,2013-05-24 11:16:00,
2013-05-24 07:21:00,62.6,62.0,29.83,SSW,200,0.0,1.0,98,0.00,,---,0.06,VWS V14.01,2013-05-24 11:21:00,
2013-05-24 07:26:00,62.7,62.1,29.83,SSW,200,0.0,1.0,98,0.00,,---,0.06,VWS V14.01,2013-05-24 11:26:00,
2013-05-24 07:31:00,62.8,62.2,29.83,ESE,114,0.0,0.0,98,0.00,,---,0.06,VWS V14.01,2013-05-24 11:31:00,
2013-05-24 07:36:00,62.9,62.3,29.83,SW,232,1.0,1.0,98,0.00,,---,0.06,VWS V14.01,2013-05-24 11:36:00,
2013-05-24 07:41:00,63.1,62.5,29.83,SE,146,0.0,1.0,98,0.00,,---,0.06,VWS V14.01,2013-05-24 11:41:00,
2013-05-24 07:46:00,63.3,62.7,29.83,SW,228,0.0,1.0,98,0.00,,---,0.06,VWS V14.01,2013-05-24 11:46:00,
2013-05-24 07:51:00,63.4,62.5,29.83,ESE,113,0.0,5.0,97,0.00,,---,0.06,VWS V14.01,2013-05-24 11:51:00,
2013-05-24 07:56:00,63.5,62.6,29.84,SE,134,2.0,5.0,97,0.00,,---,0.06,VWS V14.01,2013-05-24 11:56:00,
2013-05-24 08:02:00,63.5,62.3,29.84,WNW,290,0.0,0.0,96,0.00,,---,0.06,VWS V14.01,2013-05-24 12:02:00,
2013-05-24 08:07:00,63.5,62.3,29.84,WNW,290,0.0,1.0,96,0.00,,---,0.06,VWS V14.01,2013-05-24 12:07:00,
2013-05-24 08:12:00,63.5,62.0,29.83,SE,134,0.0,2.0,95,0.00,,---,0.06,VWS V14.01,2013-05-24 12:12:00,
2013-05-24 08:17:00,63.7,62.2,29.84,ESE,112,0.0,2.0,95,0.00,,---,0.06,VWS V14.01,2013-05-24 12:17:00,
2013-05-24 08:22:00,63.8,62.0,29.84,East,79,1.0,3.0,94,0.00,,---,0.06,VWS V14.01,2013-05-24 12:22:00,
2013-05-24 08:27:00,64.0,62.2,29.84,East,79,1.0,3.0,94,0.00,,---,0.06,VWS V14.01,2013-05-24 12:27:00,
2013-05-24 08:32:00,64.3,62.8,29.85,East,79,0.0,0.0,95,0.00,,---,0.06,VWS V14.01,2013-05-24 12:32:00,
2013-05-24 08:37:00,64.5,62.7,29.85,SW,215,0.0,2.0,94,0.00,,---,0.06,VWS V14.01,2013-05-24 12:37:00,
2013-05-24 08:42:00,64.7,62.9,29.85,SW,231,1.0,2.0,94,0.00,,---,0.06,VWS V14.01,2013-05-24 12:42:00,
2013-05-24 08:47:00,64.7,62.3,29.85,SSE,158,0.0,3.0,92,0.00,,---,0.06,VWS V14.01,2013-05-24 12:47:00,
2013-05-24 08:52:00,64.8,62.4,29.85,WSW,243,1.0,3.0,92,0.00,,---,0.06,VWS V14.01,2013-05-24 12:52:00,
2013-05-24 08:57:00,64.8,62.1,29.85,South,191,0.0,3.0,91,0.00,,---,0.06,VWS V14.01,2013-05-24 12:57:00,
2013-05-24 09:02:00,64.9,62.5,29.85,SW,226,1.0,1.0,92,0.00,,---,0.06,VWS V14.01,2013-05-24 13:02:00,
2013-05-24 09:07:00,64.7,61.7,29.86,West,270,1.0,2.0,90,0.00,,---,0.06,VWS V14.01,2013-05-24 13:07:00,
2013-05-24 09:13:00,64.6,61.9,29.86,SSW,200,1.0,4.0,91,0.00,,---,0.06,VWS V14.01,2013-05-24 13:13:00,
2013-05-24 09:18:00,64.5,61.2,29.86,SSW,212,0.0,4.0,89,0.00,,---,0.06,VWS V14.01,2013-05-24 13:18:00,
2013-05-24 09:23:00,64.7,61.7,29.86,West,259,0.0,4.0,90,0.00,,---,0.06,VWS V14.01,2013-05-24 13:23:00,
2013-05-24 09:28:00,64.9,61.6,29.87,SW,224,1.0,5.0,89,0.00,,---,0.06,VWS V14.01,2013-05-24 13:28:00,
2013-05-24 09:33:00,65.2,61.9,29.87,East,86,1.0,1.0,89,0.00,,---,0.06,VWS V14.01,2013-05-24 13:33:00,
2013-05-24 09:38:00,65.4,61.4,29.87,West,264,0.0,5.0,87,0.01,,---,0.07,VWS V14.01,2013-05-24 13:38:00,
2013-05-24 09:43:00,65.6,62.3,29.87,WSW,238,0.0,5.0,89,0.01,,---,0.07,VWS V14.01,2013-05-24 13:43:00,
2013-05-24 09:48:00,66.2,62.5,29.88,SSW,211,0.0,5.0,88,0.01,,---,0.07,VWS V14.01,2013-05-24 13:48:00,
2013-05-24 09:53:00,66.8,62.5,29.88,East,86,0.0,5.0,86,0.01,,---,0.07,VWS V14.01,2013-05-24 13:53:00,
2013-05-24 09:58:00,67.1,62.1,29.88,ESE,103,1.0,5.0,84,0.01,,---,0.07,VWS V14.01,2013-05-24 13:58:00,
2013-05-24 10:03:00,67.6,62.6,29.88,WSW,256,0.0,2.0,84,0.01,,---,0.07,VWS V14.01,2013-05-24 14:03:00,
2013-05-24 10:08:00,68.1,61.3,29.88,West,278,1.0,7.0,79,0.01,,---,0.07,VWS V14.01,2013-05-24 14:08:00,
2013-05-24 10:14:00,68.7,61.9,29.88,WNW,291,1.0,7.0,79,0.01,,---,0.07,VWS V14.01,2013-05-24 14:14:00,
2013-05-24 10:19:00,69.3,62.9,29.89,ENE,58,3.0,8.0,80,0.01,,---,0.07,VWS V14.01,2013-05-24 14:19:00,
2013-05-24 10:24:00,69.4,62.2,29.89,ENE,72,1.0,8.0,78,0.01,,---,0.07,VWS V14.01,2013-05-24 14:24:00,
2013-05-24 10:29:00,69.7,61.8,29.90,ENE,72,1.0,8.0,76,0.01,,---,0.07,VWS V14.01,2013-05-24 14:29:00,
2013-05-24 10:34:00,69.8,61.2,29.90,NNE,23,3.0,6.0,74,0.01,,---,0.07,VWS V14.01,2013-05-24 14:34:00,
2013-05-24 10:39:00,69.2,60.6,29.90,NW,314,0.0,6.0,74,0.01,,---,0.07,VWS V14.01,2013-05-24 14:39:00,
2013-05-24 10:44:00,68.8,60.6,29.90,ESE,113,2.0,6.0,75,0.01,,---,0.07,VWS V14.01,2013-05-24 14:44:00,
2013-05-24 10:49:00,68.6,60.7,29.90,NE,54,1.0,6.0,76,0.01,,---,0.07,VWS V14.01,2013-05-24 14:49:00,
2013-05-24 10:54:00,68.5,61.0,29.91,West,281,1.0,6.0,77,0.01,,---,0.07,VWS V14.01,2013-05-24 14:54:00,
2013-05-24 10:59:00,68.7,60.8,29.91,ENE,77,6.0,6.0,76,0.01,,---,0.07,VWS V14.01,2013-05-24 14:59:00,
2013-05-24 11:05:00,69.0,61.1,29.91,NE,34,1.0,3.0,76,0.00,,---,0.07,VWS V14.01,2013-05-24 15:05:00,
2013-05-24 11:10:00,69.3,61.4,29.91,NE,50,2.0,4.0,76,0.00,,---,0.07,VWS V14.01,2013-05-24 15:10:00,
2013-05-24 11:15:00,69.4,60.8,29.92,West,260,0.0,8.0,74,0.00,,---,0.07,VWS V14.01,2013-05-24 15:15:00,
2013-05-24 11:20:00,69.7,61.8,29.92,ESE,122,0.0,8.0,76,0.00,,---,0.07,VWS V14.01,2013-05-24 15:20:00,
2013-05-24 11:25:00,69.9,60.9,29.92,West,270,1.0,8.0,73,0.00,,---,0.07,VWS V14.01,2013-05-24 15:25:00,
2013-05-24 11:30:00,69.4,60.8,29.92,ESE,122,2.0,8.0,74,0.00,,---,0.07,VWS V14.01,2013-05-24 15:30:00,
2013-05-24 11:35:00,69.1,60.5,29.92,SE,125,1.0,4.0,74,0.00,,---,0.07,VWS V14.01,2013-05-24 15:35:00,
2013-05-24 11:40:00,69.1,60.8,29.92,North,352,3.0,5.0,75,0.00,,---,0.07,VWS V14.01,2013-05-24 15:40:00,
2013-05-24 11:45:00,69.3,61.0,29.92,WNW,291,1.0,6.0,75,0.00,,---,0.07,VWS V14.01,2013-05-24 15:45:00,
2013-05-24 11:50:00,69.9,60.1,29.92,WNW,287,1.0,6.0,71,0.00,,---,0.07,VWS V14.01,2013-05-24 15:50:00,
2013-05-24 11:55:00,70.3,60.9,29.92,ENE,65,1.0,6.0,72,0.00,,---,0.07,VWS V14.01,2013-05-24 15:55:00,
2013-05-24 12:01:00,70.9,60.2,29.93,ESE,121,1.0,6.0,69,0.00,,---,0.07,VWS V14.01,2013-05-24 16:01:00,
2013-05-24 12:06:00,71.4,59.9,29.93,ENE,60,2.0,10.0,67,0.00,,---,0.07,VWS V14.01,2013-05-24 16:06:00,
2013-05-24 12:11:00,72.1,59.3,29.93,South,176,1.0,10.0,64,0.00,,---,0.07,VWS V14.01,2013-05-24 16:11:00,
2013-05-24 12:16:00,72.0,59.2,29.93,NE,52,2.0,10.0,64,0.00,,---,0.07,VWS V14.01,2013-05-24 16:16:00,
2013-05-24 12:21:00,71.7,58.0,29.94,South,177,4.0,10.0,62,0.00,,---,0.07,VWS V14.01,2013-05-24 16:21:00,
2013-05-24 12:26:00,71.2,57.1,29.94,East,88,2.0,10.0,61,0.00,,---,0.07,VWS V14.01,2013-05-24 16:26:00,
2013-05-24 12:31:00,70.3,55.8,29.94,North,352,4.0,6.0,60,0.00,,---,0.07,VWS V14.01,2013-05-24 16:31:00,
2013-05-24 12:36:00,69.9,54.5,29.94,West,262,2.0,10.0,58,0.00,,---,0.07,VWS V14.01,2013-05-24 16:36:00,
2013-05-24 12:41:00,69.9,54.9,29.94,NE,49,2.0,10.0,59,0.00,,---,0.07,VWS V14.01,2013-05-24 16:41:00,
2013-05-24 12:46:00,70.0,54.1,29.95,North,356,5.0,10.0,57,0.00,,---,0.07,VWS V14.01,2013-05-24 16:46:00,
2013-05-24 12:51:00,70.3,55.3,29.94,SW,222,2.0,10.0,59,0.00,,---,0.07,VWS V14.01,2013-05-24 16:51:00,
2013-05-24 12:56:00,70.5,54.5,29.95,East,94,2.0,10.0,57,0.00,,---,0.07,VWS V14.01,2013-05-24 16:56:00,
2013-05-24 13:01:00,70.6,55.6,29.95,West,271,3.0,3.0,59,0.00,,---,0.07,VWS V14.01,2013-05-24 17:01:00,
2013-05-24 13:07:00,70.1,53.7,29.95,NNE,27,3.0,13.0,56,0.00,,---,0.07,VWS V14.01,2013-05-24 17:07:00,
2013-05-24 13:12:00,70.6,53.2,29.95,WNW,290,2.0,13.0,54,0.00,,---,0.07,VWS V14.01,2013-05-24 17:12:00,
2013-05-24 13:17:00,71.9,54.9,29.95,West,260,1.0,13.0,55,0.00,,---,0.07,VWS V14.01,2013-05-24 17:17:00,
2013-05-24 13:22:00,72.2,55.2,29.95,ESE,122,5.0,13.0,55,0.00,,---,0.07,VWS V14.01,2013-05-24 17:22:00,
2013-05-24 13:27:00,72.6,55.0,29.95,West,259,1.0,13.0,54,0.00,,---,0.07,VWS V14.01,2013-05-24 17:27:00,
2013-05-24 13:32:00,73.1,55.5,29.95,West,264,2.0,4.0,54,0.00,,---,0.07,VWS V14.01,2013-05-24 17:32:00,
2013-05-24 13:37:00,73.8,54.0,29.95,ENE,67,2.0,8.0,50,0.00,,---,0.07,VWS V14.01,2013-05-24 17:37:00,
2013-05-24 13:42:00,73.6,53.3,29.95,NNE,19,3.0,8.0,49,0.00,,---,0.07,VWS V14.01,2013-05-24 17:42:00,
2013-05-24 13:47:00,73.4,53.1,29.96,ESE,116,1.0,8.0,49,0.00,,---,0.07,VWS V14.01,2013-05-24 17:47:00,
2013-05-24 13:52:00,73.7,53.4,29.96,SSE,149,2.0,8.0,49,0.00,,---,0.07,VWS V14.01,2013-05-24 17:52:00,
2013-05-24 13:58:00,73.8,53.5,29.96,ENE,64,3.0,12.0,49,0.00,,---,0.07,VWS V14.01,2013-05-24 17:58:00,
2013-05-24 14:03:00,74.1,54.3,29.96,West,263,2.0,3.0,50,0.00,,---,0.07,VWS V14.01,2013-05-24 18:03:00,
2013-05-24 14:08:00,73.2,51.2,29.96,North,11,3.0,10.0,46,0.00,,---,0.07,VWS V14.01,2013-05-24 18:08:00,
2013-05-24 14:13:00,72.6,51.8,29.96,NE,37,2.0,10.0,48,0.00,,---,0.07,VWS V14.01,2013-05-24 18:13:00,
2013-05-24 14:18:00,73.5,52.6,29.97,East,89,4.0,10.0,48,0.00,,---,0.07,VWS V14.01,2013-05-24 18:18:00,
2013-05-24 14:23:00,73.3,51.3,29.97,NNE,19,3.0,10.0,46,0.00,,---,0.07,VWS V14.01,2013-05-24 18:23:00,
2013-05-24 14:28:00,72.9,51.5,29.97,NNW,342,1.0,10.0,47,0.00,,---,0.07,VWS V14.01,2013-05-24 18:28:00,
2013-05-24 14:33:00,73.1,51.7,29.97,WNW,291,2.0,7.0,47,0.00,,---,0.07,VWS V14.01,2013-05-24 18:33:00,
2013-05-24 14:38:00,73.4,52.5,29.97,WSW,238,2.0,7.0,48,0.00,,---,0.07,VWS V14.01,2013-05-24 18:38:00,
2013-05-24 14:43:00,73.3,51.9,29.97,ENE,77,1.0,7.0,47,0.00,,---,0.07,VWS V14.01,2013-05-24 18:43:00,
2013-05-24 14:48:00,73.9,52.4,29.97,WNW,287,2.0,7.0,47,0.00,,---,0.07,VWS V14.01,2013-05-24 18:48:00,
2013-05-24 14:53:00,73.9,51.8,29.97,West,276,2.0,7.0,46,0.00,,---,0.07,VWS V14.01,2013-05-24 18:53:00,
2013-05-24 14:59:00,73.4,51.4,29.97,NE,49,2.0,7.0,46,0.00,,---,0.07,VWS V14.01,2013-05-24 18:59:00,
2013-05-24 15:04:00,71.8,50.5,29.97,NE,49,5.0,9.0,47,0.00,,---,0.07,VWS V14.01,2013-05-24 19:04:00,
2013-05-24 15:09:00,71.6,50.9,29.98,West,271,1.0,9.0,48,0.00,,---,0.07,VWS V14.01,2013-05-24 19:09:00,
2013-05-24 15:14:00,71.8,51.1,29.98,East,88,2.0,9.0,48,0.00,,---,0.07,VWS V14.01,2013-05-24 19:14:00,
2013-05-24 15:19:00,70.5,49.3,29.98,SSW,205,2.0,9.0,47,0.00,,---,0.07,VWS V14.01,2013-05-24 19:19:00,
2013-05-24 15:24:00,71.0,49.8,29.98,ESE,113,2.0,9.0,47,0.00,,---,0.07,VWS V14.01,2013-05-24 19:24:00,
2013-05-24 15:29:00,71.1,49.3,29.98,South,177,1.0,12.0,46,0.00,,---,0.07,VWS V14.01,2013-05-24 19:29:00,
2013-05-24 15:34:00,71.7,49.2,29.98,ENE,59,3.0,6.0,45,0.00,,---,0.07,VWS V14.01,2013-05-24 19:34:00,
2013-05-24 15:40:00,71.0,49.2,29.98,ENE,60,7.0,8.0,46,0.00,,---,0.07,VWS V14.01,2013-05-24 19:40:00,
2013-05-24 15:45:00,70.3,48.6,29.98,WNW,299,1.0,10.0,46,0.00,,---,0.07,VWS V14.01,2013-05-24 19:45:00,
2013-05-24 15:50:00,70.4,49.2,29.98,ENE,58,5.0,10.0,47,0.00,,---,0.07,VWS V14.01,2013-05-24 19:50:00,
2013-05-24 15:55:00,70.6,49.4,29.98,SSW,194,2.0,10.0,47,0.00,,---,0.07,VWS V14.01,2013-05-24 19:55:00,
2013-05-24 16:00:00,70.7,48.9,29.99,ESE,117,1.0,10.0,46,0.00,,---,0.07,VWS V14.01,2013-05-24 20:00:00,
2013-05-24 16:05:00,71.0,48.6,29.98,ENE,70,1.0,7.0,45,0.00,,---,0.07,VWS V14.01,2013-05-24 20:05:00,
2013-05-24 16:10:00,70.5,47.6,29.99,NE,47,3.0,11.0,44,0.00,,---,0.07,VWS V14.01,2013-05-24 20:10:00,
2013-05-24 16:15:00,70.9,47.9,29.99,West,259,0.0,11.0,44,0.00,,---,0.07,VWS V14.01,2013-05-24 20:15:00,
2013-05-24 16:20:00,71.2,48.2,29.99,ENE,68,1.0,11.0,44,0.00,,---,0.07,VWS V14.01,2013-05-24 20:20:00,
2013-05-24 16:25:00,70.4,48.1,29.99,West,263,2.0,11.0,45,0.00,,---,0.07,VWS V14.01,2013-05-24 20:25:00,
2013-05-24 16:30:00,69.6,47.9,29.99,WSW,254,2.0,11.0,46,0.00,,---,0.07,VWS V14.01,2013-05-24 20:30:00,
2013-05-24 16:35:00,69.0,48.0,29.99,ENE,78,2.0,9.0,47,0.00,,---,0.07,VWS V14.01,2013-05-24 20:35:00,
2013-05-24 16:40:00,68.3,46.2,29.99,NE,37,7.0,15.0,45,0.00,,---,0.07,VWS V14.01,2013-05-24 20:40:00,
2013-05-24 16:45:00,67.9,47.0,30.00,West,274,3.0,15.0,47,0.00,,---,0.07,VWS V14.01,2013-05-24 20:45:00,
2013-05-24 16:50:00,67.6,46.1,30.00,NW,305,1.0,15.0,46,0.00,,---,0.07,VWS V14.01,2013-05-24 20:50:00,
2013-05-24 16:55:00,67.4,44.2,30.00,ENE,73,7.0,15.0,43,0.00,,---,0.07,VWS V14.01,2013-05-24 20:55:00,
2013-05-24 17:01:00,67.1,44.5,30.00,ENE,76,2.0,15.0,44,0.00,,---,0.07,VWS V14.01,2013-05-24 21:01:00,
2013-05-24 17:06:00,67.0,43.8,30.01,WNW,302,2.0,6.0,43,0.00,,---,0.07,VWS V14.01,2013-05-24 21:06:00,
2013-05-24 17:11:00,66.7,44.1,30.01,ENE,62,7.0,7.0,44,0.00,,---,0.07,VWS V14.01,2013-05-24 21:11:00,
2013-05-24 17:16:00,66.5,43.3,30.01,ENE,65,3.0,8.0,43,0.00,,---,0.07,VWS V14.01,2013-05-24 21:16:00,
2013-05-24 17:21:00,66.4,44.4,30.01,South,188,1.0,8.0,45,0.00,,---,0.07,VWS V14.01,2013-05-24 21:21:00,
2013-05-24 17:26:00,66.6,44.6,30.01,ENE,57,0.0,8.0,45,0.00,,---,0.07,VWS V14.01,2013-05-24 21:26:00,
2013-05-24 17:31:00,66.7,45.3,30.01,NW,305,0.0,0.0,46,0.00,,---,0.07,VWS V14.01,2013-05-24 21:31:00,
2013-05-24 17:36:00,66.7,44.7,30.01,WNW,297,2.0,8.0,45,0.00,,---,0.07,VWS V14.01,2013-05-24 21:36:00,
2013-05-24 17:41:00,66.4,43.2,30.02,SSE,149,2.0,8.0,43,0.00,,---,0.07,VWS V14.01,2013-05-24 21:41:00,
2013-05-24 17:46:00,65.8,42.1,30.02,ENE,64,1.0,15.0,42,0.00,,---,0.07,VWS V14.01,2013-05-24 21:46:00,
2013-05-24 17:51:00,65.6,43.1,30.02,ENE,58,1.0,15.0,44,0.00,,---,0.07,VWS V14.01,2013-05-24 21:51:00,
2013-05-24 17:56:00,65.4,43.5,30.02,NE,43,1.0,15.0,45,0.00,,---,0.07,VWS V14.01,2013-05-24 21:56:00,
2013-05-24 18:02:00,65.4,44.1,30.02,NE,41,3.0,3.0,46,0.00,,---,0.07,VWS V14.01,2013-05-24 22:02:00,
2013-05-24 18:07:00,65.2,41.5,30.03,West,281,1.0,11.0,42,0.00,,---,0.07,VWS V14.01,2013-05-24 22:07:00,
2013-05-24 18:12:00,65.0,41.4,30.03,NE,55,3.0,11.0,42,0.00,,---,0.07,VWS V14.01,2013-05-24 22:12:00,
2013-05-24 18:17:00,64.9,40.7,30.03,North,1,3.0,12.0,41,0.00,,---,0.07,VWS V14.01,2013-05-24 22:17:00,
2013-05-24 18:22:00,64.7,41.1,30.03,ENE,62,1.0,12.0,42,0.00,,---,0.07,VWS V14.01,2013-05-24 22:22:00,
2013-05-24 18:27:00,64.5,40.9,30.03,NNW,328,0.0,12.0,42,0.00,,---,0.07,VWS V14.01,2013-05-24 22:27:00,
2013-05-24 18:32:00,64.5,41.5,30.04,ENE,77,5.0,8.0,43,0.00,,---,0.07,VWS V14.01,2013-05-24 22:32:00,
2013-05-24 18:37:00,64.3,40.1,30.04,WSW,256,1.0,8.0,41,0.00,,---,0.07,VWS V14.01,2013-05-24 22:37:00,
2013-05-24 18:42:00,64.1,39.3,30.04,NE,47,1.0,8.0,40,0.00,,---,0.07,VWS V14.01,2013-05-24 22:42:00,
2013-05-24 18:47:00,63.9,40.4,30.04,ENE,58,2.0,8.0,42,0.00,,---,0.07,VWS V14.01,2013-05-24 22:47:00,
2013-05-24 18:52:00,63.7,40.2,30.04,ENE,67,4.0,15.0,42,0.00,,---,0.07,VWS V14.01,2013-05-24 22:52:00,
2013-05-24 18:58:00,63.5,40.0,30.05,East,90,1.0,15.0,42,0.00,,---,0.07,VWS V14.01,2013-05-24 22:58:00,
2013-05-24 19:03:00,63.4,39.9,30.05,ENE,70,1.0,9.0,42,0.00,,---,0.07,VWS V14.01,2013-05-24 23:03:00,
2013-05-24 19:08:00,63.3,39.8,30.05,NNE,25,1.0,11.0,42,0.00,,---,0.07,VWS V14.01,2013-05-24 23:08:00,
2013-05-24 19:13:00,63.2,41.0,30.05,East,84,2.0,11.0,44,0.00,,---,0.07,VWS V14.01,2013-05-24 23:13:00,
2013-05-24 19:18:00,63.0,40.8,30.06,NE,43,2.0,11.0,44,0.00,,---,0.07,VWS V14.01,2013-05-24 23:18:00,
2013-05-24 19:23:00,62.8,41.2,30.06,ENE,68,1.0,11.0,45,0.00,,---,0.07,VWS V14.01,2013-05-24 23:23:00,
2013-05-24 19:28:00,62.6,41.5,30.06,North,11,0.0,11.0,46,0.00,,---,0.07,VWS V14.01,2013-05-24 23:28:00,
2013-05-24 19:33:00,62.4,41.4,30.06,North,352,0.0,4.0,46,0.00,,---,0.07,VWS V14.01,2013-05-24 23:33:00,
2013-05-24 19:38:00,62.3,41.8,30.06,SSW,193,2.0,4.0,47,0.00,,---,0.07,VWS V14.01,2013-05-24 23:38:00,
2013-05-24 19:43:00,62.2,41.7,30.07,ENE,68,0.0,4.0,47,0.00,,---,0.07,VWS V14.01,2013-05-24 23:43:00,
2013-05-24 19:48:00,62.0,41.0,30.07,ENE,75,2.0,4.0,46,0.00,,---,0.07,VWS V14.01,2013-05-24 23:48:00,
2013-05-24 19:53:00,61.9,40.9,30.07,NE,54,1.0,6.0,46,0.00,,---,0.07,VWS V14.01,2013-05-24 23:53:00,
2013-05-24 19:58:00,61.7,40.7,30.07,NE,36,1.0,6.0,46,0.00,,---,0.07,VWS V14.01,2013-05-24 23:58:00,
2013-05-24 20:03:00,61.5,41.1,30.08,NE,53,0.0,1.0,47,0.00,,---,0.07,VWS V14.01,2013-05-25 00:03:00,
2013-05-24 20:09:00,61.2,41.4,30.08,ESE,102,0.0,3.0,48,0.00,,---,0.07,VWS V14.01,2013-05-25 00:09:00,
2013-05-24 20:14:00,60.8,41.5,30.08,NNE,12,2.0,3.0,49,0.00,,---,0.07,VWS V14.01,2013-05-25 00:14:00,
2013-05-24 20:19:00,60.7,40.9,30.08,SSE,149,0.0,5.0,48,0.00,,---,0.07,VWS V14.01,2013-05-25 00:19:00,
2013-05-24 20:24:00,60.5,40.7,30.08,NE,41,1.0,5.0,48,0.00,,---,0.07,VWS V14.01,2013-05-25 00:24:00,
2013-05-24 20:29:00,60.2,41.0,30.09,NE,41,0.0,5.0,49,0.00,,---,0.07,VWS V14.01,2013-05-25 00:29:00,
2013-05-24 20:34:00,59.9,41.8,30.09,NE,41,0.0,1.0,51,0.00,,---,0.07,VWS V14.01,2013-05-25 00:34:00,
2013-05-24 20:39:00,59.4,41.8,30.09,NE,41,0.0,1.0,52,0.00,,---,0.07,VWS V14.01,2013-05-25 00:39:00,
2013-05-24 20:44:00,59.0,42.9,30.09,NE,41,0.0,1.0,55,0.00,,---,0.07,VWS V14.01,2013-05-25 00:44:00,
2013-05-24 20:49:00,58.4,42.3,30.10,NE,41,0.0,1.0,55,0.00,,---,0.07,VWS V14.01,2013-05-25 00:49:00,
2013-05-24 20:55:00,57.9,42.3,30.10,NE,41,0.0,1.0,56,0.00,,---,0.07,VWS V14.01,2013-05-25 00:55:00,
2013-05-24 21:00:00,57.3,42.7,30.10,NE,41,0.0,1.0,58,0.00,,---,0.07,VWS V14.01,2013-05-25 01:00:00,
2013-05-24 21:05:00,56.9,42.7,30.10,NE,41,0.0,0.0,59,0.00,,---,0.07,VWS V14.01,2013-05-25 01:05:00,
2013-05-24 21:10:00,56.4,43.6,30.10,NE,41,0.0,0.0,62,0.00,,---,0.07,VWS V14.01,2013-05-25 01:10:00,
2013-05-24 21:15:00,56.2,43.0,30.11,NE,41,0.0,1.0,61,0.00,,---,0.07,VWS V14.01,2013-05-25 01:15:00,
2013-05-24 21:20:00,56.1,43.3,30.11,NE,41,0.0,1.0,62,0.00,,---,0.07,VWS V14.01,2013-05-25 01:20:00,
2013-05-24 21:25:00,55.9,43.1,30.11,NE,41,0.0,1.0,62,0.00,,---,0.07,VWS V14.01,2013-05-25 01:25:00,
2013-05-24 21:31:00,55.6,42.8,30.11,NE,41,0.0,1.0,62,0.00,,---,0.07,VWS V14.01,2013-05-25 01:31:00,
2013-05-24 21:36:00,55.1,43.2,30.11,NE,41,0.0,1.0,64,0.00,,---,0.07,VWS V14.01,2013-05-25 01:36:00,
2013-05-24 21:41:00,54.7,43.2,30.11,NE,41,0.0,1.0,65,0.00,,---,0.07,VWS V14.01,2013-05-25 01:41:00,
2013-05-24 21:46:00,54.5,43.8,30.12,NE,41,0.0,1.0,67,0.00,,---,0.07,VWS V14.01,2013-05-25 01:46:00,
2013-05-24 21:51:00,54.3,43.6,30.12,NE,41,0.0,1.0,67,0.00,,---,0.07,VWS V14.01,2013-05-25 01:51:00,
2013-05-24 21:56:00,54.0,43.3,30.12,NE,41,0.0,1.0,67,0.00,,---,0.07,VWS V14.01,2013-05-25 01:56:00,
2013-05-24 22:01:00,53.7,43.8,30.12,NE,41,0.0,0.0,69,0.00,,---,0.07,VWS V14.01,2013-05-25 02:01:00,
2013-05-24 22:06:00,53.7,44.5,30.13,SSE,149,0.0,1.0,71,0.00,,---,0.07,VWS V14.01,2013-05-25 02:06:00,
2013-05-24 22:11:00,53.5,43.6,30.13,SE,143,0.0,1.0,69,0.00,,---,0.07,VWS V14.01,2013-05-25 02:11:00,
2013-05-24 22:17:00,53.4,43.9,30.13,SE,144,0.0,1.0,70,0.00,,---,0.07,VWS V14.01,2013-05-25 02:17:00,
2013-05-24 22:22:00,53.4,42.7,30.14,SE,143,0.0,1.0,67,0.00,,---,0.07,VWS V14.01,2013-05-25 02:22:00,
2013-05-24 22:27:00,53.4,42.7,30.14,SSE,156,0.0,1.0,67,0.00,,---,0.07,VWS V14.01,2013-05-25 02:27:00,
2013-05-24 22:32:00,53.4,43.1,30.14,SSE,156,0.0,0.0,68,0.00,,---,0.07,VWS V14.01,2013-05-25 02:32:00,
2013-05-24 22:37:00,53.2,42.9,30.14,SSE,156,0.0,0.0,68,0.00,,---,0.07,VWS V14.01,2013-05-25 02:37:00,
2013-05-24 22:42:00,53.1,42.8,30.14,NE,40,0.0,1.0,68,0.00,,---,0.07,VWS V14.01,2013-05-25 02:42:00,
2013-05-24 22:47:00,53.1,42.8,30.15,NNW,344,0.0,1.0,68,0.00,,---,0.07,VWS V14.01,2013-05-25 02:47:00,
2013-05-24 22:52:00,53.2,42.9,30.15,SSE,163,0.0,2.0,68,0.00,,---,0.07,VWS V14.01,2013-05-25 02:52:00,
2013-05-24 22:57:00,53.3,42.2,30.15,SSE,152,0.0,2.0,66,0.00,,---,0.07,VWS V14.01,2013-05-25 02:57:00,
2013-05-24 23:02:00,53.4,41.9,30.15,SSW,197,0.0,1.0,65,0.00,,---,0.07,VWS V14.01,2013-05-25 03:02:00,
2013-05-24 23:08:00,53.8,41.1,30.15,East,96,0.0,4.0,62,0.00,,---,0.07,VWS V14.01,2013-05-25 03:08:00,
2013-05-24 23:13:00,53.9,42.0,30.16,East,96,0.0,4.0,64,0.00,,---,0.07,VWS V14.01,2013-05-25 03:13:00,
2013-05-24 23:18:00,53.8,42.3,30.16,East,97,0.0,4.0,65,0.00,,---,0.07,VWS V14.01,2013-05-25 03:18:00,
2013-05-24 23:23:00,53.8,41.1,30.16,SSE,152,0.0,4.0,62,0.00,,---,0.07,VWS V14.01,2013-05-25 03:23:00,
2013-05-24 23:28:00,53.9,39.9,30.16,ESE,115,0.0,4.0,59,0.00,,---,0.07,VWS V14.01,2013-05-25 03:28:00,
2013-05-24 23:33:00,54.0,41.3,30.16,ESE,116,0.0,1.0,62,0.00,,---,0.07,VWS V14.01,2013-05-25 03:33:00,
2013-05-24 23:38:00,54.1,39.7,30.16,NE,51,0.0,4.0,58,0.00,,---,0.07,VWS V14.01,2013-05-25 03:38:00,
2013-05-24 23:43:00,54.2,39.8,30.16,NE,51,0.0,4.0,58,0.00,,---,0.07,VWS V14.01,2013-05-25 03:43:00,
2013-05-24 23:48:00,54.1,39.7,30.16,NE,44,0.0,4.0,58,0.00,,---,0.07,VWS V14.01,2013-05-25 03:48:00,
2013-05-24 23:53:00,54.0,39.6,30.15,NE,51,1.0,4.0,58,0.00,,---,0.07,VWS V14.01,2013-05-25 03:53:00,
2013-05-24 23:58:00,53.9,39.5,30.16,NE,51,0.0,4.0,58,0.00,,---,0.07,VWS V14.01,2013-05-25 03:58:00,